sat.trackr.live / text

‹ back to catalog

STARLINK-2235

NORAD 48581 · 2021-041AE

PAYLOAD ACTIVE UNKNOWN

§ Identity

Operator
Country
US
Launch date
2021-05-15
Launch site
AFETR
Launch vehicle
Mass (kg)
RCS (m²)

Purposes: comms

External: N2YO · Heavens-Above · Gunter

§ Orbital elements

Epoch: 2026-09-09T05:26:34.105632Z

Period
94.01 min
Inclination
53.1600°
Eccentricity
0.0001071
Mean motion
15.31700149 rev/d
Perigee alt
470.0 km
Apogee alt
471.5 km
Semi-major
6,848.9 km
B*
-3.8028e-5
RAAN
329.7198°
Arg perigee
83.7140°
Mean anomaly
276.3983°
Rev number
29,371

§ Raw data

STARLINK-22351 48581U 21041AE  26252.22678363 -.00001545  00000+0 -38028-4 0  99992 48581  53.1600 329.7198 0001071  83.7140 276.3983 15.31700149293715

JSON: /api/v1/satellites/48581 · /tle

For live sub-satellite position, see the globe view (requires WebGL).

§ Visibility from observer

Set your observer location to see the next 7 days of passes ≥ 10°. The values pass through the URL so the page stays shareable.

No JS? Fill the form by hand. The geolocation button needs JavaScript.